Location: Frankfurt+(oder)
(51.7984°N, 12.2168°E)
Time: 07:41:11
(UTC+01:00)

ISS - Pass Details

Date: 15 November 2017
Orbit: 402 x 407 km, 51.6° (Epoch: 21 November)

Event Time Altitude Azimuth Distance (km) Brightness Sun altitude
Exits shadow 04:55:21 24° 145° (SE) 886 -1.8 -23.7°
Drops below altitude 10° 04:56:53 10° 131° (SE) 1,453 -0.4 -23.5°
Sets 04:59:01 0° 125° (SE) 2,309 0.9 -23.2°
